This is the latest recevied weather packets stored in our database for station/object K3RUP-1. If no packets are shown the sender has not sent any weather packets the latest 10 day(s).
| Time | Temp. | Humidity | Pressure | Rain* | Wind** | Luminosity | Snow |
|---|---|---|---|---|---|---|---|
| 1788460407 | 30.56° C | 75% | 1014 hPa | 0 mm | - | 733 W/m² | - |
| 1788460106 | 30° C | 74% | 1013.9 hPa | 0 mm | - | 638 W/m² | - |
| 1788459800 | 29.44° C | 75% | 1014.2 hPa | 0 mm | - | 286 W/m² | - |
| 1788459500 | 28.89° C | 75% | 1014.2 hPa | 0 mm | - | 306 W/m² | - |
| 1788459194 | 28.89° C | 76% | 1014.3 hPa | 0 mm | - | 249 W/m² | - |
| 1788458889 | 29.44° C | 77% | 1014.4 hPa | 0 mm | - | 265 W/m² | - |
| 1788458588 | 29.44° C | 76% | 1014.6 hPa | 0 mm | - | 439 W/m² | - |
| 1788458288 | 28.89° C | 80% | 1014.4 hPa | 0 mm | - | 466 W/m² | - |
| 1788457987 | 28.89° C | 80% | 1014.8 hPa | 0 mm | - | 332 W/m² | - |
| 1788457681 | 28.89° C | 81% | 1014.8 hPa | 0 mm | - | 272 W/m² | - |
| 1788457377 | 28.89° C | 84% | 1014.4 hPa | 0 mm | - | 687 W/m² | - |
| 1788457071 | 27.78° C | 86% | 1014.6 hPa | 0 mm | - | 688 W/m² | - |
| 1788456767 | 27.78° C | 89% | 1014.9 hPa | 0 mm | - | 672 W/m² | - |
| 1788456462 | 27.78° C | 89% | 1014.7 hPa | 0 mm | - | 221 W/m² | - |
| 1788456157 | 27.22° C | 90% | 1014.8 hPa | 0 mm | - | 424 W/m² | - |
| 1788455852 | 26.67° C | 92% | 1014.5 hPa | 0 mm | - | 363 W/m² | - |
| 1788455548 | 26.67° C | 93% | 1014.8 hPa | 0 mm | - | 356 W/m² | - |
| 1788455246 | 26.11° C | 95% | 1014.8 hPa | 0 mm | - | 254 W/m² | - |
| 1788454942 | 26.11° C | 95% | 1014.9 hPa | 0 mm | - | 152 W/m² | - |
| 1788454640 | 26.11° C | 95% | 1015 hPa | 0 mm | - | 101 W/m² | - |
| 1788454335 | 26.11° C | 95% | 1015.2 hPa | 0 mm | - | 86 W/m² | - |
| 1788454029 | 26.11° C | 95% | 1015 hPa | 0 mm | - | 81 W/m² | - |
| 1788453726 | 26.11° C | 95% | 1014.9 hPa | 0 mm | - | 68 W/m² | - |
| 1788453425 | 26.11° C | 95% | 1015.2 hPa | 0 mm | - | 60 W/m² | - |
| 1788453122 | 25.56° C | 94% | 1015.4 hPa | 0 mm | - | 61 W/m² | - |
* Rain latest hour (hover to see other rain measurements)
** Current wind speed in m/s (hover to see current wind gust speed)